Погода в Баруун-Урте

Монголия     46°41′07″N   113°16′55″E
темп.,
°C
ветер,
м/с
пор.,
м/с
влажн.,
%
обл.,
%
осадки,
мм/ч
давл.,
гПа
погр.,
м
10 августа, ср
ср1023:00+18св224291 0.0 100718
02:00+15ссв224659 0.0 100711
05:00+16з4643100 0.1 1008119
08:00+13зюз2387100 2.1 1008143
11:00+14з1185100 0.9 1007105
14:00+19з2260100 0.9 1005627
17:00+22з2249100 0.0 1004929
20:00+16ююз12745 0.0 100411
11 августа, чт
чт1123:00+15ссв22795 0.0 100511
02:00+14вюв227075 0.0 100510
05:00+13юв126865 0.1 100611
08:00+18в115051 0.2 1007145
11:00+22ю224674 0.1 1006840
14:00+22с3352100 0.3 1005808
17:00+22с3455100 0.1 1005381
20:00+16ссв61070100 1.0 1008228
12 августа, пт
пт1223:00+13св4672100 0.0 1009105
02:00+12ссв3375100 0.0 100925
05:00+12ссв227596 0.0 100814
08:00+16сз0060100 0.0 1009164
11:00+21с234284 0.0 1007987
14:00+24сз223492 0.0 10052243
17:00+24зсз2337100 0.0 10041442
20:00+18юз115045 0.0 100511
13 августа, сб
сб1323:00+18всв225154 0.0 100625
02:00+15в2260100 0.0 100712
05:00+15св4459100 0.0 100753
08:00+18вюв455499 0.0 1006228
11:00+22вюв3342100 0.0 1005687
14:00+25зюз1234100 0.0 10031820
17:00+26св2334100 0.0 10021739
20:00+20всв51048100 0.0 1003246
14 августа, вс
вс1423:00+18в3753100 0.1 1004192
02:00+14ссв2392100 2.8 1004105
05:00+13всв4797100 6.9 1003334
08:00+14в3491100 7.8 1004328
11:00+16св227882 0.0 1004504
14:00+18ссв3472100 0.8 1003715
17:00+19ссз336999 2.1 1004794
20:00+16с377967 2.6 1006209